GBHFJ EGKA-EGSG

Flight info

Callsign GBHFJ
Flight time 0h 37m
Altitude 2200
Route 5049N00006W DCT BISRU DCT 5136N00016E
Aircraft P28R/L-SDFGR/S

Departure

Time 2026-04-27 08:55
Airport Brighton City Airport (EGKA)

Arrival

Time 2026-04-27 09:33
Airport Stapleford Aerodrome (EGSG)
Time Latitude Longitude Altitude Speed Heading
2026-04-27 08:45 50.83438 -0.28960 9 ft 0 kts 253°
2026-04-27 08:51 50.83437 -0.28961 9 ft 0 kts 254°
2026-04-27 08:51 50.83442 -0.29022 9 ft 6 kts 314°
2026-04-27 08:51 50.83466 -0.29086 9 ft 12 kts 266°
2026-04-27 08:52 50.83426 -0.29292 9 ft 26 kts 246°
2026-04-27 08:52 50.83347 -0.29546 9 ft 24 kts 242°
2026-04-27 08:52 50.83276 -0.29763 9 ft 21 kts 241°
2026-04-27 08:52 50.83246 -0.29863 9 ft 0 kts 247°
2026-04-27 08:53 50.83247 -0.29912 10 ft 9 kts 306°
2026-04-27 08:54 50.83282 -0.29907 10 ft 5 kts 22°
2026-04-27 08:54 50.83311 -0.29890 10 ft 4 kts 21°
2026-04-27 08:54 50.83514 -0.29760 10 ft 60 kts 21°
2026-04-27 08:54 50.84011 -0.29458 144 ft 83 kts 17°
2026-04-27 08:55 50.84558 -0.29137 451 ft 86 kts 16°
2026-04-27 08:55 50.85131 -0.28793 742 ft 89 kts 25°
2026-04-27 08:55 50.85535 -0.28054 1008 ft 93 kts 64°
2026-04-27 08:55 50.85484 -0.27000 1159 ft 104 kts 109°
2026-04-27 08:56 50.85158 -0.26004 1407 ft 101 kts 118°
2026-04-27 08:56 50.84801 -0.25039 1608 ft 103 kts 118°
2026-04-27 08:56 50.84468 -0.24043 1812 ft 101 kts 115°
2026-04-27 08:56 50.84219 -0.23069 2118 ft 94 kts 110°
2026-04-27 08:57 50.83741 -0.21173 2512 ft 100 kts 115°
2026-04-27 08:57 50.83432 -0.20154 2615 ft 107 kts 116°
2026-04-27 08:57 50.83089 -0.19033 2562 ft 119 kts 115°
2026-04-27 08:58 50.82730 -0.17778 2418 ft 129 kts 113°
2026-04-27 08:58 50.82385 -0.16437 2303 ft 134 kts 112°
2026-04-27 08:58 50.82046 -0.15078 2240 ft 137 kts 114°
2026-04-27 08:58 50.81679 -0.13715 2201 ft 129 kts 114°
2026-04-27 08:59 50.81355 -0.12403 2127 ft 127 kts 112°
2026-04-27 08:59 50.81124 -0.11095 2195 ft 118 kts 93°
2026-04-27 08:59 50.81387 -0.09882 2269 ft 120 kts 63°
2026-04-27 08:59 50.81900 -0.08815 2314 ft 126 kts 49°
2026-04-27 09:00 50.82515 -0.07777 2235 ft 134 kts 49°
2026-04-27 09:00 50.83167 -0.06730 2200 ft 132 kts 47°
2026-04-27 09:00 50.83799 -0.05729 2213 ft 126 kts 49°
2026-04-27 09:00 50.84403 -0.04712 2198 ft 126 kts 49°
2026-04-27 09:01 50.84979 -0.03701 2234 ft 122 kts 51°
2026-04-27 09:01 50.85538 -0.02717 2287 ft 117 kts 48°
2026-04-27 09:01 50.85889 -0.02081 2312 ft 115 kts 49°
2026-04-27 09:01 50.86427 -0.01126 2295 ft 118 kts 47°
2026-04-27 09:02 50.86977 -0.00134 2215 ft 121 kts 50°
2026-04-27 09:02 50.87501 0.00878 2233 ft 118 kts 49°
2026-04-27 09:02 50.88020 0.01872 2305 ft 114 kts 48°
2026-04-27 09:02 50.88540 0.02847 2254 ft 120 kts 49°
2026-04-27 09:03 50.89074 0.03847 2266 ft 116 kts 48°
2026-04-27 09:03 50.89606 0.04838 2217 ft 119 kts 50°
2026-04-27 09:03 50.90096 0.05867 2266 ft 116 kts 53°
2026-04-27 09:03 50.90574 0.06912 2243 ft 117 kts 54°
2026-04-27 09:04 50.91037 0.07961 2262 ft 116 kts 52°
2026-04-27 09:04 50.91508 0.08994 2228 ft 118 kts 53°
2026-04-27 09:04 50.91981 0.10064 2220 ft 119 kts 55°
2026-04-27 09:04 50.92447 0.11133 2272 ft 116 kts 54°
2026-04-27 09:05 50.92925 0.12164 2238 ft 117 kts 52°
2026-04-27 09:05 50.93462 0.13123 2232 ft 118 kts 45°
2026-04-27 09:05 50.93996 0.14091 2264 ft 116 kts 49°
2026-04-27 09:05 50.94530 0.15088 2233 ft 119 kts 50°
2026-04-27 09:06 50.95072 0.16071 2211 ft 119 kts 46°
2026-04-27 09:06 50.95645 0.17038 2237 ft 118 kts 47°
2026-04-27 09:06 50.96187 0.18039 2196 ft 121 kts 49°
2026-04-27 09:06 50.96726 0.19061 2258 ft 120 kts 51°
2026-04-27 09:07 50.97251 0.20079 2218 ft 121 kts 47°
2026-04-27 09:07 50.97811 0.21066 2184 ft 120 kts 47°
2026-04-27 09:07 50.98377 0.22027 2118 ft 121 kts 46°
2026-04-27 09:07 50.98960 0.23000 2090 ft 124 kts 45°
2026-04-27 09:08 50.99507 0.23997 2193 ft 117 kts 47°
2026-04-27 09:08 51.00053 0.24966 2289 ft 118 kts 47°
2026-04-27 09:08 51.00592 0.25941 2347 ft 115 kts 47°
2026-04-27 09:08 51.01135 0.26895 2375 ft 121 kts 47°
2026-04-27 09:09 51.01722 0.27897 2342 ft 125 kts 47°
2026-04-27 09:09 51.02307 0.28913 2315 ft 126 kts 46°
2026-04-27 09:09 51.02893 0.29933 2231 ft 125 kts 49°
2026-04-27 09:09 51.03474 0.30958 2177 ft 122 kts 46°
2026-04-27 09:10 51.04059 0.31889 2180 ft 119 kts 45°
2026-04-27 09:10 51.04618 0.32863 2158 ft 117 kts 48°
2026-04-27 09:10 51.05146 0.33791 2149 ft 115 kts 49°
2026-04-27 09:10 51.05691 0.34731 2153 ft 114 kts 46°
2026-04-27 09:11 51.06262 0.35588 2160 ft 114 kts 31°
2026-04-27 09:11 51.07051 0.35711 2188 ft 118 kts 355°
2026-04-27 09:11 51.07875 0.35569 2200 ft 119 kts 358°
2026-04-27 09:11 51.08701 0.35500 2169 ft 119 kts
2026-04-27 09:12 51.09529 0.35486 2153 ft 118 kts
2026-04-27 09:12 51.10342 0.35455 2194 ft 116 kts
2026-04-27 09:12 51.11137 0.35403 2244 ft 115 kts
2026-04-27 09:12 51.11924 0.35372 2255 ft 116 kts
2026-04-27 09:13 51.12744 0.35357 2204 ft 118 kts
2026-04-27 09:13 51.13579 0.35393 2220 ft 120 kts
2026-04-27 09:13 51.14410 0.35404 2225 ft 122 kts
2026-04-27 09:13 51.15281 0.35421 2142 ft 126 kts
2026-04-27 09:14 51.16151 0.35415 2124 ft 125 kts
2026-04-27 09:14 51.17027 0.35395 2155 ft 124 kts
2026-04-27 09:14 51.17895 0.35339 2195 ft 125 kts 360°
2026-04-27 09:14 51.18752 0.35268 2216 ft 122 kts
2026-04-27 09:15 51.19604 0.35258 2228 ft 124 kts
2026-04-27 09:15 51.20459 0.35303 2276 ft 123 kts
2026-04-27 09:15 51.21323 0.35357 2306 ft 126 kts
2026-04-27 09:15 51.22219 0.35347 2286 ft 129 kts
2026-04-27 09:16 51.23107 0.35220 2264 ft 132 kts 354°
2026-04-27 09:16 51.24017 0.34971 2235 ft 135 kts 349°
2026-04-27 09:16 51.24923 0.34642 2260 ft 132 kts 349°
2026-04-27 09:16 51.25831 0.34318 2242 ft 134 kts 347°
2026-04-27 09:17 51.26733 0.33884 2151 ft 135 kts 343°
2026-04-27 09:17 51.27604 0.33450 2165 ft 128 kts 344°
2026-04-27 09:17 51.28452 0.33061 2176 ft 127 kts 348°
2026-04-27 09:17 51.29310 0.32817 2186 ft 124 kts 355°
2026-04-27 09:18 51.30177 0.32705 2168 ft 127 kts 358°
2026-04-27 09:18 51.31046 0.32724 2254 ft 123 kts
2026-04-27 09:18 51.31872 0.32916 2405 ft 118 kts 12°
2026-04-27 09:18 51.32692 0.33051 2475 ft 118 kts 360°
2026-04-27 09:19 51.33527 0.32730 2339 ft 130 kts 344°
2026-04-27 09:19 51.34387 0.32307 2272 ft 129 kts 347°
2026-04-27 09:19 51.35246 0.31925 2235 ft 129 kts 348°
2026-04-27 09:19 51.36094 0.31621 2281 ft 123 kts 351°
2026-04-27 09:20 51.36935 0.31380 2239 ft 124 kts 353°
2026-04-27 09:20 51.37793 0.31193 2223 ft 125 kts 354°
2026-04-27 09:20 51.38638 0.30980 2216 ft 123 kts 352°
2026-04-27 09:20 51.39463 0.30689 2196 ft 122 kts 349°
2026-04-27 09:21 51.40282 0.30370 2214 ft 120 kts 348°
2026-04-27 09:21 51.41081 0.30030 2250 ft 118 kts 347°
2026-04-27 09:21 51.41892 0.29772 2287 ft 120 kts 355°
2026-04-27 09:21 51.42718 0.29634 2327 ft 118 kts 358°
2026-04-27 09:22 51.43536 0.29562 2328 ft 117 kts 359°
2026-04-27 09:22 51.44362 0.29476 2327 ft 120 kts 359°
2026-04-27 09:22 51.45190 0.29381 2323 ft 119 kts 359°
2026-04-27 09:22 51.46020 0.29308 2321 ft 120 kts 360°
2026-04-27 09:23 51.46856 0.29223 2319 ft 120 kts 359°
2026-04-27 09:23 51.47684 0.29142 2319 ft 122 kts
2026-04-27 09:23 51.48532 0.29082 2324 ft 122 kts 359°
2026-04-27 09:23 51.49378 0.28978 2336 ft 123 kts 356°
2026-04-27 09:24 51.50233 0.28824 2281 ft 124 kts 357°
2026-04-27 09:24 51.51101 0.28695 2268 ft 125 kts 357°
2026-04-27 09:24 51.51979 0.28568 2236 ft 127 kts 358°
2026-04-27 09:24 51.52850 0.28447 2271 ft 124 kts 358°
2026-04-27 09:25 51.53695 0.28339 2343 ft 121 kts 357°
2026-04-27 09:25 51.54540 0.28174 2346 ft 122 kts 354°
2026-04-27 09:25 51.55388 0.28020 2358 ft 122 kts 356°
2026-04-27 09:25 51.56234 0.27829 2328 ft 125 kts 352°
2026-04-27 09:26 51.57090 0.27570 2250 ft 126 kts 350°
2026-04-27 09:26 51.57930 0.27157 2225 ft 127 kts 344°
2026-04-27 09:26 51.58746 0.26688 2210 ft 124 kts 342°
2026-04-27 09:26 51.59590 0.26258 2172 ft 127 kts 345°
2026-04-27 09:27 51.60329 0.25586 2251 ft 124 kts 321°
2026-04-27 09:27 51.60915 0.24554 2269 ft 126 kts 311°
2026-04-27 09:27 51.61457 0.23475 2300 ft 125 kts 310°
2026-04-27 09:27 51.61975 0.22372 2234 ft 129 kts 310°
2026-04-27 09:28 51.62547 0.21249 2184 ft 127 kts 313°
2026-04-27 09:28 51.63112 0.20123 2114 ft 131 kts 309°
2026-04-27 09:28 51.63703 0.19021 2091 ft 129 kts 313°
2026-04-27 09:28 51.64277 0.17926 2086 ft 127 kts 311°
2026-04-27 09:29 51.64848 0.16826 2077 ft 128 kts 312°
2026-04-27 09:29 51.65466 0.15772 2041 ft 127 kts 316°
2026-04-27 09:29 51.66070 0.14832 1708 ft 122 kts 320°
2026-04-27 09:29 51.66664 0.13967 1504 ft 111 kts 310°
2026-04-27 09:30 51.66755 0.12807 1244 ft 110 kts 252°
2026-04-27 09:30 51.66313 0.11927 1183 ft 90 kts 217°
2026-04-27 09:30 51.65802 0.11440 1095 ft 84 kts 206°
2026-04-27 09:30 51.65274 0.11036 1136 ft 85 kts 202°
2026-04-27 09:31 51.64705 0.10735 1095 ft 84 kts 186°
2026-04-27 09:31 51.64179 0.11030 1003 ft 80 kts 141°
2026-04-27 09:31 51.63861 0.11784 877 ft 83 kts 120°
2026-04-27 09:31 51.63672 0.12634 774 ft 81 kts 96°
2026-04-27 09:32 51.63813 0.13510 635 ft 80 kts 68°
2026-04-27 09:32 51.64130 0.14213 476 ft 76 kts 50°
2026-04-27 09:32 51.64526 0.14760 331 ft 75 kts 39°
2026-04-27 09:32 51.64937 0.15247 176 ft 67 kts 38°
2026-04-27 09:33 51.65248 0.15606 150 ft 46 kts 35°
2026-04-27 09:33 51.65470 0.15856 146 ft 30 kts 34°
2026-04-27 09:33 51.65621 0.16022 141 ft 15 kts
2026-04-27 09:33 51.65625 0.15915 142 ft 11 kts 263°
2026-04-27 09:34 51.65624 0.15801 144 ft 10 kts 276°
2026-04-27 09:34 51.65627 0.15727 145 ft 3 kts 234°
2026-04-27 09:34 51.65619 0.15721 145 ft 0 kts 182°